This is the latest recevied weather packets stored in our database for station/object KM6YFK-13. If no packets are shown the sender has not sent any weather packets the latest 10 day(s).
| Time | Temp. | Humidity | Pressure | Rain* | Wind** | Luminosity | Snow |
|---|---|---|---|---|---|---|---|
| 1777852708 | 21.11° C | 68% | 1016.9 hPa | 0 mm | - | 5 W/m² | - |
| 1777852407 | 21.11° C | 67% | 1016.8 hPa | 0 mm | - | 9 W/m² | - |
| 1777852108 | 21.11° C | 66% | 1016.9 hPa | 0 mm | - | 12 W/m² | - |
| 1777851808 | 21.11° C | 66% | 1016.9 hPa | 0 mm | - | 15 W/m² | - |
| 1777851512 | 21.67° C | 64% | 1016.8 hPa | 0 mm | - | 19 W/m² | - |
| 1777851207 | 21.67° C | 64% | 1016.8 hPa | 0 mm | - | 23 W/m² | - |
| 1777850908 | 21.67° C | 62% | 1016.8 hPa | 0 mm | - | 26 W/m² | - |
| 1777850608 | 21.67° C | 62% | 1016.8 hPa | 0 mm | - | 33 W/m² | - |
| 1777850308 | 22.22° C | 60% | 1016.9 hPa | 0 mm | - | 38 W/m² | - |
| 1777850007 | 22.22° C | 60% | 1016.9 hPa | 0 mm | - | 41 W/m² | - |
| 1777849709 | 22.78° C | 58% | 1016.8 hPa | 0 mm | - | 45 W/m² | - |
| 1777849408 | 22.78° C | 55% | 1016.9 hPa | 0 mm | - | 96 W/m² | - |
| 1777849107 | 22.78° C | 57% | 1017 hPa | 0 mm | - | 79 W/m² | - |
| 1777848807 | 22.78° C | 55% | 1017 hPa | 0 mm | - | 101 W/m² | - |
| 1777848507 | 23.33° C | 55% | 1017 hPa | 0 mm | - | 160 W/m² | - |
| 1777848207 | 23.33° C | 55% | 1017 hPa | 0 mm | - | 125 W/m² | - |
| 1777847907 | 23.33° C | 54% | 1017 hPa | 0 mm | - | 181 W/m² | - |
| 1777847608 | 23.33° C | 52% | 1017 hPa | 0 mm | - | 202 W/m² | - |
| 1777847307 | 23.33° C | 53% | 1017 hPa | 0 mm | - | 220 W/m² | - |
| 1777847007 | 23.33° C | 53% | 1017 hPa | 0 mm | - | 243 W/m² | - |
| 1777846707 | 23.33° C | 51% | 1016.9 hPa | 0 mm | - | 256 W/m² | - |
| 1777846407 | 23.33° C | 51% | 1016.8 hPa | 0 mm | - | 270 W/m² | - |
| 1777846107 | 23.33° C | 53% | 1016.8 hPa | 0 mm | - | 257 W/m² | - |
| 1777845807 | 23.33° C | 52% | 1016.8 hPa | 0 mm | - | 309 W/m² | - |
| 1777845507 | 23.33° C | 51% | 1016.9 hPa | 0 mm | - | 327 W/m² | - |
* Rain latest hour (hover to see other rain measurements)
** Current wind speed in m/s (hover to see current wind gust speed)